TIME,DELAY(SENSOR),PRES,T(CTD),SAL,OXYGEN,RAWTEMP,T(OPTODE),TCPHASE,TURBIDITY,TURBIDITY_GAIN,FLUOR,BETA,CDOM,ED411.5,ED443.8,ED489.6,PAR,COMP,TILT,TILTY(TILT),CHECK
1341768595,6469,211.1000061035156200,4.9675002098083500,34.9738998413085940,362.6325988769531000,653.1810913085938000,4.9466400146484375,32.4141387939453100,16,3,50,106,62,2147636168,2147393731,2147295400,2148324579,2391,2,-4,11176
1341768656,6467,207.5500030517578000,4.9672999382019040,34.9742012023925800,362.6271972656250000,653.1737060546875000,4.9468779563903810,32.4143409729003900,15,3,49,105,62,2147640890,2147391812,2147296004,2148323163,2264,2,-4,55312
1341768720,6468,203.8200073242187500,4.9668998718261720,34.9744987487793000,362.7457885742187500,653.1690063476562000,4.9470329284667970,32.4106407165527340,16,3,48,106,62,2147637380,2147390157,2147299291,2148325612,2078,2,-4,56234
1341768781,6468,200.2899932861328000,4.9678001403808590,34.9737014770507800,362.7793884277344000,653.1641845703125000,4.9471888542175290,32.4096412658691400,16,3,50,109,62,2147639236,2147395290,2147297051,2148322989,1890,2,-4,35323
1341768842,6467,196.8000030517578000,4.9679999351501465,34.9735984802246100,362.8233032226562500,653.1586914062500000,4.9473690986633300,32.4081802368164060,16,3,49,126,64,2147641700,2147393764,2147292086,2148323990,1675,2,-4,17568
1341768904,6468,193.3399963378906200,4.9678001403808590,34.9739990234375000,362.8919982910156000,653.1478271484375000,4.9477229118347170,32.4056205749511700,16,3,48,116,62,2147634513,2147394262,2147296246,2148326312,1485,2,-4,799
1341768965,6465,189.9199981689453000,4.9685001373291020,34.9739990234375000,362.9764099121094000,653.1262817382812000,4.9484200477600100,32.4025001525878900,16,3,49,137,62,2147632840,2147394029,2147298211,2148321965,1256,2,-4,29664
1341769026,6468,186.5299987792968800,4.9697999954223630,34.9735984802246100,363.0401000976562500,653.0891723632812000,4.9496312141418460,32.3995399475097660,28,3,50,118,62,2147634633,2147392671,2147297819,2148323451,983,2,-4,14461
1341769087,6469,183.1399993896484400,4.9703001976013180,34.9740982055664060,363.0692138671875000,653.0742187500000000,4.9501171112060550,32.3986816406250000,16,3,48,115,62,2147637050,2147388900,2147301947,2148319706,734,2,-6,40866
1341769148,6468,179.7200012207031200,4.9714999198913570,34.9738006591796900,363.0154113769531000,653.0504150390625000,4.9508910179138180,32.3999595642089840,10,3,50,112,62,2147635753,2147392827,2147302243,2148323587,499,2,-6,42084
1341769212,6467,176.1199951171875000,4.9738001823425290,34.9735984802246100,363.0740966796875000,652.9805908203125000,4.9531631469726560,32.3968009948730500,16,3,50,107,62,2147636868,2147393718,2147305220,2148325521,314,2,-5,40270
1341769273,6468,172.7299957275390600,4.9739999771118160,34.9738998413085940,363.1404113769531000,652.9556274414062000,4.9539761543273930,32.3941612243652340,16,3,49,111,62,2147635524,2147396520,2147311012,2148325425,2240,2,-5,12214
1341769337,6468,169.1999969482422000,4.9739999771118160,34.9738998413085940,363.1954956054687500,652.9536132812500000,4.9540410041809080,32.3922004699707000,16,3,50,120,64,2147635780,2147398700,2147316447,2148323720,3190,2,-6,52083
1341769398,6468,165.8899993896484400,4.9755997657775880,34.9734001159668000,363.3327941894531000,652.9133911132812000,4.9553489685058590,32.3873100280761700,16,3,50,113,62,2147635807,2147396603,2147319926,2148325915,2894,2,-4,8442
1341769462,6466,162.4700012207031200,4.9762001037597660,34.9733009338378900,363.3450927734375000,652.8889770507812000,4.9561409950256350,32.3863601684570300,16,3,50,114,62,2147636402,2147398120,2147324584,2148326715,2685,2,-6,6951
1341769524,6467,159.2100067138672000,4.9780998229980470,34.9729995727539060,363.4465026855469000,652.8452758789062000,4.9575648307800290,32.3823699951171900,16,3,50,115,62,2147638970,2147400219,2147331318,2148324406,2486,2,-4,56460
1341769588,6466,155.9400024414062500,4.9794001579284670,34.9733009338378900,363.6069030761719000,652.7905883789062000,4.9593448638916020,32.3761596679687500,15,3,50,109,62,2147635908,2147400625,2147332548,2148328447,2402,2,-4,26223
1341769649,6466,152.8899993896484400,4.9840998649597170,34.9730987548828100,363.7428894042969000,652.6627807617188000,4.9635009765625000,32.3695983886718750,16,3,50,124,63,2147639816,2147401965,2147333356,2148325449,2230,2,-4,38131
1341769713,6468,149.7200012207031200,4.9874000549316410,34.9734992980957000,363.7992858886719000,652.5579833984375000,4.9669108390808105,32.3660011291503900,33,3,50,111,62,2147638061,2147401677,2147338070,2148328927,2130,2,-4,16306
1341769774,6468,146.7200012207031200,4.9889001846313480,34.9735984802246100,363.7738952636719000,652.4940185546875000,4.9689941406250000,32.3657302856445300,16,3,50,113,62,2147635570,2147405137,2147337617,2148326779,2041,2,-4,64496
1341769838,6468,143.6100006103515600,4.9942998886108400,34.9734001159668000,363.7600097656250000,652.3535766601562000,4.9735579490661620,32.3635292053222660,11,3,49,116,62,2147635578,2147402075,2147341641,2148327624,1946,2,-6,22584
1341769899,6468,140.6900024414062500,5.0008001327514650,34.9739990234375000,363.4144897460937500,652.1500854492188000,4.9801769256591800,32.3711318969726560,16,3,50,114,62,2147636196,2147404913,2147345475,2148329801,1860,2,-5,37256
1341769963,6469,137.6799926757812500,5.0100998878479000,34.9747009277343750,363.4229125976562500,651.7774047851562000,4.9923000335693360,32.3639793395996100,16,3,50,113,63,2147635853,2147403569,2147348013,2148327108,1631,2,-6,49586
1341770024,6467,134.8300018310547000,5.0246000289916990,34.9754981994628900,363.2047119140625000,651.4440917968750000,5.0031390190124510,32.3648490905761700,13,3,50,115,62,2147634170,2147406001,2147352072,2148330733,1449,2,-4,17520
1341770088,6468,131.8699951171875000,5.0290999412536620,34.9757003784179700,362.8887939453125000,651.2855224609375000,5.0082969665527340,32.3721504211425800,16,3,50,117,62,2147637211,2147407625,2147357489,2148330934,1249,2,-4,50662
1341770150,6468,129.0099945068359400,5.0451998710632320,34.9768981933593750,362.4494018554687500,650.7512207031250000,5.0256690979003910,32.3765983581543000,16,3,50,114,61,2147634939,2147407331,2147358262,2148330834,876,2,-6,27356
1341770214,6468,126.0299987792968800,5.0584001541137695,34.9776000976562500,362.1135864257812500,650.3513183593750000,5.0386700630187990,32.3801307678222660,11,3,50,116,62,2147636584,2147408465,2147363985,2148332438,739,2,-6,55621
1341770275,6467,123.2600021362304700,5.0721001625061035,34.9789009094238300,361.8370971679687500,649.9901733398438000,5.0504059791564940,32.3823204040527340,16,3,51,122,62,2147638568,2147409320,2147370573,2148334235,270,2,-6,59058
1341770339,6468,120.3799972534179700,5.0928997993469240,34.9813003540039060,361.2557067871094000,648.9445800781250000,5.0843849182128910,32.3824501037597660,26,3,50,114,62,2147634284,2147409567,2147377001,2148336228,1795,2,-5,54783
1341770400,6467,117.6900024414062500,5.1226000785827640,34.9835014343261700,360.8846130371094000,648.4633789062500000,5.1000161170959470,32.3853607177734400,16,3,52,113,62,2147636895,2147412333,2147379885,2148334586,3158,2,-6,24169
1341770464,6465,114.9000015258789000,5.1312999725341800,34.9841995239257800,360.6991882324219000,648.1782226562500000,5.1092829704284670,32.3864402770996100,16,3,54,122,63,2147637928,2147411953,2147386472,2148336214,2964,2,-6,35335
1341770525,6469,112.3499984741211000,5.1357002258300780,34.9850997924804700,360.6253967285156000,647.9935913085938000,5.1152777671813965,32.3856010437011700,16,3,54,122,62,2147636497,2147410651,2147390811,2148337215,2790,2,-4,37237
1341770589,6467,109.7799987792968800,5.1483001708984375,34.9856986999511700,360.5304870605469000,647.6259765625000000,5.1272158622741700,32.3820381164550800,16,3,56,121,62,2147639885,2147413434,2147393466,2148338212,2686,2,-6,57141
1341770650,6466,107.3899993896484400,5.1568999290466310,34.9864997863769500,360.1661071777344000,647.3848876953125000,5.1350479125976560,32.3893699645996100,15,3,56,119,62,2147637773,2147416068,2147395451,2148337896,2588,2,-6,8021
1341770741,6466,103.1800003051757800,5.1772999763488770,34.9880981445312500,360.0779113769531000,646.6862182617188000,5.1577339172363280,32.3797416687011700,16,3,56,124,62,2147640305,2147420497,2147410591,2148340721,2396,2,-6,8575
1341770803,6468,99.4400024414062500,5.1876997947692870,34.9893989562988300,359.8530883789062500,646.4185791015625000,5.1664199829101560,32.3820991516113300,15,3,58,125,62,2147640012,2147423185,2147426828,2148342399,2233,2,-6,48155
1341770867,6468,95.4800033569336000,5.2119998931884770,34.9911994934082000,359.4619140625000000,645.6547851562500000,5.1912140846252440,32.3812599182128900,16,3,60,126,62,2147644671,2147429649,2147446697,2148348570,2030,2,-6,50601
1341770928,6467,91.6800003051757800,5.2231001853942870,34.9928016662597660,359.4703979492187500,645.2828979492188000,5.2032852172851560,32.3740196228027340,15,3,61,129,62,2147642756,2147434568,2147474961,2148349956,1905,2,-6,28515
1341771016,6468,86.8499984741211000,5.2519001960754395,34.9940986633300800,359.1908874511719000,644.4431152343750000,5.2305340766906740,32.3681983947753900,16,3,64,124,62,2147646947,2147443049,2147507483,2148358614,1549,2,-5,22301
1341771077,6469,84.3000030517578100,5.2526001930236820,34.9948997497558600,359.3074951171875000,644.3394165039062000,5.2338981628417970,32.3625793457031250,16,3,66,125,62,2147646175,2147448991,2147525590,2148362961,1314,2,-6,1475
1341771141,6467,81.8000030517578100,5.2677001953125000,34.9948005676269500,359.1034851074219000,643.9432983398438000,5.2467460632324220,32.3619918823242200,14,3,68,130,61,2147648763,2147454097,2147554660,2148367140,1217,2,-6,55345
1341771202,6468,79.5100021362304700,5.2694001197814940,34.9953994750976560,359.1524963378906000,643.8405151367188000,5.2500801086425780,32.3586807250976560,16,3,70,136,62,2147651647,2147462596,2147583610,2148376712,918,2,-6,27896
1341771290,6468,75.4300003051757800,5.3045001029968260,34.9957008361816400,358.9913940429687500,642.7628784179688000,5.2850270271301270,32.3446693420410160,16,3,74,136,62,2147655391,2147477535,2147637384,2148384073,606,2,-6,20827
1341771351,6468,71.6600036621093800,5.3354997634887695,34.9956016540527340,358.8290100097656000,641.8847045898438000,5.3134989738464355,32.3344917297363300,16,3,76,150,62,2147661837,2147494920,2147692401,2148398980,344,2,-6,47568
1341771415,6470,67.3000030517578100,5.3724999427795410,34.9948997497558600,358.6961975097656000,640.6651000976562000,5.3530249595642090,32.3169212341308600,21,3,104,142,62,2147667807,2147525796,2147794655,2148421128,3318,2,-4,20682
1341771477,6468,62.8100013732910160,5.3930001258850100,34.9959983825683600,358.7069091796875000,640.0435180664062000,5.3731670379638670,32.3055915832519500,20,3,118,148,62,2147687368,2147582966,2147954362,2148461741,2696,2,-6,3723
1341771564,6468,56.5600013732910160,5.4808998107910160,34.9995002746582000,358.5499877929687500,637.4611206054688000,5.4567890167236330,32.2651481628418000,18,3,102,146,62,2147729201,2147678079,2148224580,2148531364,2554,2,-6,18833
1341771625,6470,52.4099998474121100,5.5321998596191410,34.9962005615234400,358.5687866210937500,635.9736938476562000,5.5049228668212890,32.2382392883300800,16,3,114,157,62,2147767523,2147767949,2148463149,2148597307,2667,2,-6,41028
1341771716,6471,47.1800003051757800,5.5500998497009280,34.9967002868652340,359.7774047851562500,635.4066772460938000,5.5232639312744140,32.1894607543945300,17,3,132,138,61,2147819149,2147885801,2148754892,2148684369,2401,2,-6,36501
1341771777,6470,45.9900016784668000,5.5514001846313480,34.9967002868652340,360.0653991699219000,635.2296142578125000,5.5289940834045410,32.1771202087402340,16,3,128,145,62,2147843099,2147947894,2148912516,2148726934,2345,2,-6,1934
1341771912,6469,43.9500007629394500,5.5529999732971190,34.9973983764648440,360.5954895019531000,635.0809936523438000,5.5338001251220700,32.1574897766113300,18,3,121,152,63,2147909860,2148077622,2149208488,2148816475,2094,2,-6,52455
1341772003,6470,40.1399993896484400,5.5749998092651370,34.9963989257812500,360.9881896972656000,633.8632812500000000,5.5731768608093260,32.1235809326171900,32,3,129,154,62,2148011231,2148230028,2149502811,2148935231,1824,2,-6,4984
1341772064,6471,36.6800003051757800,5.6458001136779785,34.9958992004394500,361.5426940917969000,631.8961791992188000,5.6367549896240230,32.0712890625000000,39,3,142,166,62,2148132484,2148399780,2149857654,2149069997,1895,2,-6,17153
1341772128,6469,33.1199989318847660,5.8298997879028320,34.9929008483886700,364.4104919433594000,626.9672241210938000,5.7958889007568360,31.8948192596435550,40,3,403,288,62,2148377846,2148782655,2150602358,2149333110,1719,2,-4,30422
1341772189,6469,29.7000007629394530,5.8923997879028320,34.9935989379882800,369.9295959472656000,624.5635986328125000,5.8734002113342285,31.6809501647949220,44,3,469,378,64,2148857092,2149498436,2151902811,2149782665,1136,2,-6,37518
1341772253,6470,26.1399993896484380,6.1216998100280760,34.9892005920410160,377.2572937011719000,617.5222167968750000,6.1001300811767580,31.3365898132324220,68,3,512,549,64,2149680588,2150632104,2153721421,2150438368,1202,2,-6,28011
1341772314,6472,22.9099998474121100,6.2698001861572270,34.9891014099121100,385.8135070800781000,612.9450073242188000,6.2472500801086430,31.0047092437744140,89,3,524,637,62,2151347679,2152845037,2157073087,2151688058,1251,1,-6,38363
1341772378,6471,19.3999996185302730,6.6392998695373535,34.9805984497070300,392.7453918457031000,603.0355834960938000,6.5650482177734375,30.6382999420166000,115,3,498,917,64,2154215482,2156333997,2161739588,2153531967,212,2,-5,3009
1341772439,6472,16.4099998474121100,7.1546001434326170,34.9781990051269500,395.8915100097656000,582.6791992187500000,7.2149472236633300,30.2164802551269530,139,3,456,1052,64,2159791254,2162752063,2169834559,2156878513,2819,1,-6,39147
1341772503,6470,14.1400003433227540,7.9095001220703125,34.9688987731933600,404.7681884765625000,563.0344238281250000,7.8385510444641110,29.6580696105957030,137,3,386,1054,62,2167489901,2171171734,2179858669,2161189151,2087,0,-5,65205
1341772577,6473,12.1300001144409180,8.1103000640869140,34.9835014343261700,412.6480102539062500,554.6528930664062000,8.1035900115966800,29.3152809143066400,133,3,346,974,63,2175138499,2178834610,2187893883,2165056338,2203,2,-7,30150
1341772657,6470,10.6400003433227540,10.7040996551513670,34.9676017761230500,378.7901000976562500,473.4920043945312500,10.6418399810791020,29.0438804626464840,96,3,304,691,60,2176235067,2179882610,2188732639,2165658660,2178,2,-6,34796
1341772833,6471,7.9400000572204590,10.9193000793457030,34.9854011535644500,367.2009887695312500,464.8911132812500000,10.9081497192382810,29.2597694396972660,85,3,255,618,56,2191701937,2195904333,2205642564,2175658592,2267,3,-4,30218
1341772903,6470,4.4699997901916500,10.9651002883911130,34.9874992370605500,366.1409912109375000,463.1672058105469000,10.9614696502685550,29.2666702270507800,96,3,223,618,59,2210430061,2214443231,2223733974,2190652315,1992,8,-10,33506
1341772962,6466,253.0000000000000000,0.0000000000000000,0.0000000000000000,366.1643066406250000,463.1127929687500000,10.9631595611572270,29.2651100158691400,83,3,208,626,56,2221249562,2224859460,2233410929,2203991250,2621,3,10,18494
1341772992,6469,7.0000000000000000,0.0000000000000000,0.0000000000000000,366.0387878417969000,463.0185852050781000,10.9660701751708980,29.2674903869628900,82,3,188,556,60,2230701243,2234075172,2241678705,2220799149,1903,8,-6,15997
